Weather in Veymandoo

Maldives     2°11′19″N   73°05′44″E
temp.,
°C
wind,
m/s
gust,
m/s
humid.,
%
clouds,
%
prec.,
mm/h
press.,
hPa
HPBL,
m
10 august, wed
wed1023:00+28wsw4476100 0.9 1009551
02:00+28w347541 0.0 1008697
05:00+28wnw2274100 0.0 1008680
08:00+27nw227567 0.1 1009576
11:00+28nw227453 0.1 1009578
14:00+28nnw3374100 0.0 1006727
17:00+28nw337379 0.0 1007819
20:00+28nw227322 0.0 1008696
11 august, thu
thu1123:00+28nnw22745 0.1 1009418
02:00+27nw11793 1.5 100826
05:00+27ssw11745 2.4 1008287
08:00+27ese11733 0.0 1010404
11:00+28e22732 0.0 1009552
14:00+28ene22720 0.0 1008716
17:00+28e22715 0.0 1008759
20:00+28e117214 0.0 1010675
12 august, fri
fri1223:00+28ese33755 0.0 1011638
02:00+27ese337681 0.4 1009606
05:00+27e447710 0.6 1009696
08:00+28e337619 0.0 1011662
11:00+28ese337615 0.0 1010712
14:00+28ese337512 0.0 1008700
17:00+28e33765 0.6 1008506
20:00+27ene337922 1.6 1010326
13 august, sat
sat1323:00+27e447760 2.0 1011581
02:00+27e447830 1.4 1009454
05:00+27e337785 2.6 1009565
08:00+27e3376100 0.9 1010564
11:00+28ese337528 0.9 1011719
14:00+28ese227393 0.0 1008736
17:00+28e3373100 0.1 1008786
20:00+28e337499 0.0 1010745
14 august, sun
sun1423:00+28e3375100 0.0 1011653
02:00+27e337639 0.0 1009667
05:00+27e33765 0.1 1009661
08:00+27ene337627 0.0 1011615
11:00+28e3374100 0.0 1011612
14:00+28ene23736 0.0 1009740
17:00+28e227290 0.1 1009740
20:00+28e3373100 0.0 1010739